TimeEST,TemperatureF,Dew PointF,Humidity,Sea Level PressureIn,VisibilityMPH,Wind Direction,Wind SpeedMPH,Gust SpeedMPH,PrecipitationIn,Events,Conditions,WindDirDegrees,DateUTC
12:13 AM,22.6,18.5,84,29.78,5.0,NNW,16.1,23.0,N/A,Snow,Light Snow,330,2013-02-15 05:13:00
12:34 AM,22.1,17.2,82,29.79,7.0,NW,15.0,23.0,N/A,,Overcast,320,2013-02-15 05:34:00
12:54 AM,21.7,16.5,80,29.80,7.0,NW,16.1,24.2,N/A,,Overcast,320,2013-02-15 05:54:00
1:13 AM,21.6,15.6,78,29.80,10.0,NW,18.4,23.0,N/A,,Overcast,320,2013-02-15 06:13:00
1:54 AM,20.3,14.0,77,29.81,10.0,NNW,17.3,24.2,N/A,,Overcast,330,2013-02-15 06:54:00
2:13 AM,19.4,12.2,74,29.82,10.0,NW,17.3,24.2,N/A,,Overcast,320,2013-02-15 07:13:00
2:54 AM,18.7,12.0,75,29.84,10.0,NW,15.0,23.0,N/A,,Overcast,320,2013-02-15 07:54:00
3:34 AM,18.3,12.6,78,29.85,10.0,NNW,11.5,19.6,N/A,,Overcast,330,2013-02-15 08:34:00
3:54 AM,18.1,12.6,79,29.86,10.0,WNW,9.2,17.3,N/A,Snow,Light Snow,300,2013-02-15 08:54:00
4:13 AM,18.0,13.1,81,29.86,10.0,WNW,10.4,16.1,N/A,Snow,Light Snow,300,2013-02-15 09:13:00
4:54 AM,18.0,12.7,80,29.87,10.0,NW,12.7,19.6,N/A,,Overcast,310,2013-02-15 09:54:00
5:13 AM,18.0,11.7,76,29.88,10.0,NW,13.8,19.6,N/A,,Overcast,320,2013-02-15 10:13:00
5:34 AM,17.6,10.4,73,29.89,10.0,NW,15.0,23.0,N/A,,Overcast,320,2013-02-15 10:34:00
5:54 AM,17.2,10.0,73,29.91,10.0,NW,12.7,21.9,N/A,Snow,Light Snow,320,2013-02-15 10:54:00
6:13 AM,17.1,9.5,72,29.91,10.0,NW,13.8,19.6,N/A,,Overcast,320,2013-02-15 11:13:00
6:34 AM,16.7,8.8,71,29.92,10.0,NNW,12.7,21.9,N/A,,Overcast,330,2013-02-15 11:34:00
6:54 AM,16.3,8.4,71,29.93,10.0,NNW,16.1,25.3,N/A,,Mostly Cloudy,330,2013-02-15 11:54:00
7:13 AM,16.2,8.2,71,29.94,10.0,NW,10.4,24.2,N/A,,Mostly Cloudy,310,2013-02-15 12:13:00
7:34 AM,15.3,9.5,78,29.95,10.0,WNW,8.1,-,N/A,,Scattered Clouds,300,2013-02-15 12:34:00
7:54 AM,14.9,9.5,79,29.95,10.0,NW,11.5,-,N/A,,Clear,310,2013-02-15 12:54:00
8:13 AM,14.9,9.5,79,29.96,10.0,NW,6.9,-,N/A,,Clear,320,2013-02-15 13:13:00
8:34 AM,15.3,9.7,79,29.97,10.0,NW,8.1,-,N/A,,Clear,320,2013-02-15 13:34:00
8:53 AM,16.5,10.6,77,29.98,10.0,NNW,9.2,-,N/A,,Scattered Clouds,330,2013-02-15 13:53:00
9:13 AM,17.4,10.6,75,29.99,10.0,NNW,9.2,-,N/A,,Mostly Cloudy,330,2013-02-15 14:13:00
9:34 AM,17.6,10.6,74,29.99,10.0,NW,5.8,-,N/A,,Overcast,310,2013-02-15 14:34:00
9:53 AM,17.6,10.0,72,29.99,10.0,NW,9.2,-,N/A,,Overcast,310,2013-02-15 14:53:00
10:13 AM,18.1,9.9,70,29.99,10.0,WNW,8.1,-,N/A,,Overcast,290,2013-02-15 15:13:00
10:34 AM,18.0,9.7,70,30.00,7.0,WNW,8.1,-,N/A,Snow,Light Snow,290,2013-02-15 15:34:00
10:53 AM,18.3,10.2,71,30.00,5.0,WNW,10.4,-,N/A,Snow,Light Snow,290,2013-02-15 15:53:00
11:34 AM,19.0,10.0,68,30.00,7.0,WNW,9.2,-,N/A,Snow,Light Snow,290,2013-02-15 16:34:00
11:53 AM,19.2,10.9,70,30.00,4.0,WNW,9.2,-,N/A,Snow,Light Snow,290,2013-02-15 16:53:00
12:53 PM,19.2,12.9,76,30.00,1.8,West,8.1,-,N/A,Snow,Light Snow,270,2013-02-15 17:53:00
1:34 PM,20.3,12.0,70,30.00,10.0,West,6.9,-,N/A,Snow,Light Snow,280,2013-02-15 18:34:00
2:53 PM,19.9,13.6,77,30.00,10.0,West,8.1,-,N/A,,Overcast,270,2013-02-15 19:53:00
3:14 PM,20.5,12.7,72,30.00,10.0,West,8.1,-,N/A,,Overcast,280,2013-02-15 20:14:00
3:34 PM,21.0,11.7,67,30.00,7.0,West,6.9,-,N/A,Snow,Light Snow,280,2013-02-15 20:34:00
3:53 PM,20.8,12.2,69,30.00,7.0,West,10.4,-,N/A,Snow,Light Snow,270,2013-02-15 20:53:00
4:33 PM,19.9,13.1,75,30.01,5.0,WNW,9.2,-,N/A,Snow,Light Snow,290,2013-02-15 21:33:00
4:53 PM,18.7,14.9,85,30.02,0.5,Calm,Calm,-,N/A,Snow,Light Snow,0,2013-02-15 21:53:00
5:14 PM,18.5,14.7,85,30.03,2.0,North,5.8,-,N/A,Snow,Light Snow,10,2013-02-15 22:14:00
5:33 PM,18.3,14.2,84,30.04,2.0,North,4.6,-,N/A,Snow,Light Snow,10,2013-02-15 22:33:00
5:53 PM,17.6,13.8,85,30.04,4.0,North,5.8,-,N/A,Snow,Light Snow,360,2013-02-15 22:53:00
6:33 PM,17.1,13.1,84,30.05,3.0,NNW,5.8,-,N/A,Snow,Light Snow,330,2013-02-15 23:33:00
6:54 PM,17.2,13.1,84,30.06,7.0,NW,9.2,-,N/A,,Overcast,310,2013-02-15 23:54:00
7:14 PM,17.2,12.2,81,30.07,1.5,NW,10.4,17.3,N/A,Snow,Light Snow,310,2013-02-16 00:14:00
7:33 PM,16.3,12.2,84,30.07,1.2,WNW,15.0,23.0,N/A,Snow,Light Snow,300,2013-02-16 00:33:00
7:54 PM,16.0,11.1,81,30.07,4.0,WNW,11.5,21.9,N/A,Snow,Light Snow,300,2013-02-16 00:54:00
8:14 PM,15.8,8.6,73,30.07,10.0,WNW,11.5,17.3,N/A,,Overcast,300,2013-02-16 01:14:00
9:33 PM,14.9,6.3,69,30.08,10.0,WNW,12.7,18.4,N/A,,Overcast,300,2013-02-16 02:33:00
10:33 PM,13.8,4.1,65,30.07,10.0,WNW,9.2,-,N/A,,Mostly Cloudy,290,2013-02-16 03:33:00
10:54 PM,13.1,4.8,70,30.06,10.0,West,8.1,16.1,N/A,,Clear,280,2013-02-16 03:54:00
11:14 PM,12.6,5.0,72,30.06,10.0,WNW,9.2,-,N/A,,Scattered Clouds,290,2013-02-16 04:14:00
11:33 PM,12.2,4.8,72,30.05,10.0,NW,8.1,-,N/A,,Clear,310,2013-02-16 04:33:00
11:54 PM,12.7,5.0,71,30.05,10.0,West,9.2,-,N/A,,Mostly Cloudy,280,2013-02-16 04:54:00